User: anonymous   Login
Location: Hepcat Sky Observatory
(29.9800°N, 95.6500°W)
Time: 17:17:57
(UTC-05:00)
Language:

Cosmos 2151 Rocket - Orbit

View from above orbital plane
View from above orbital plane
View from above satellite
View from above satellite

Ground track
Ground track

The orbit data is extracted from the following two-line orbital elements,

1 21423U 91042B   16275.39979047  .00000121  00000-0  12964-4 0  9997
2 21423  82.4963 203.2381 0018268  22.9069 337.2954 14.79655492364310
Epoch (UTC): 01 October 2016 09:35:41
Eccentricity: 0.0018268
inclination: 82.4963°
perigee height: 617 km
apogee height: 643 km
right ascension of ascending node: 203.2381°
argument of perigee: 22.9069°
revolutions per day: 14.79655492
mean anomaly at epoch: 337.2954°
orbit number at epoch: 36431

The dashed part of the orbit path shows where the satellite is in the earth's shadow,  

DLR